Change the Weather History Date:

Sunday, February 10, 2013

  Actual Average Record
Temperature  
Mean Temperature 80 °F -  
Max Temperature 91 °F 89 °F 95 °F (2002)
Min Temperature 69 °F 62 °F 51 °F (1997)
Cooling Degree Days 15    
Growing Degree Days 30 (Base 50)    
Moisture  
Dew Point 64 °F    
Average Humidity 60    
Maximum Humidity 83    
Minimum Humidity 43    
Precipitation  
Precipitation 0.00 in 0.01 in - ()
Sea Level Pressure  
Sea Level Pressure 29.94 in    
Wind  
Wind Speed 2 mph ()    
Max Wind Speed 12 mph    
Max Gust Speed -    
Visibility 4.2 miles    
Events      
Averages and records for this station are not official NWS values.
T = Trace of Precipitation, MM = Missing Value Source: Averaged Metar Reports

Daily Weather History Graph

Daily Weather History Graph

Search for Another Location

Airport or City:

Trip Planner

Search our weather history database for the weather conditions in past years. The results will help you decide how hot, cold, wet, or windy it might be!

Date:

Astronomy

Feb. 10, 2013 Rise Set
Actual Time 6:54 AM ICT 6:22 PM ICT
Civil Twilight 6:32 AM ICT 6:44 PM ICT
Nautical Twilight 6:06 AM ICT 7:10 PM ICT
Astronomical Twilight 5:40 AM ICT 7:36 PM ICT
Moon 6:30 AM ICT (2/10) 6:27 PM ICT (2/10)
Length of Visible Light 12h 12m
Length of Day
11h 27m
Waning Crescent, 0% of the Moon is Illuminated
Feb 10
Waning Crescent
Feb 10
New
Feb 18
First Quarter
Feb 26
Full
Mar 5
Last Quarter

Hourly Weather History & Observations

Time (ICT) Temp. Heat Index Dew Point Humidity Pressure Visibility Wind Dir Wind Speed Gust Speed Precip Events Conditions
12:00 AM 75.2 °F - 60.8 °F 61% 29.98 in 6.2 mi Calm Calm - N/A   Partly Cloudy
1:00 AM 74 °F - 65 °F 67% 29.92 in 4 mi Calm Calm - -   Mist
1:00 AM 73.4 °F - 60.8 °F 65% 29.98 in 6.2 mi Calm Calm - N/A   Partly Cloudy
1:30 AM 73.4 °F - 60.8 °F 65% 29.95 in 6.2 mi Calm Calm - N/A   Partly Cloudy
2:00 AM 71.6 °F - 62.6 °F 73% 29.95 in 6.2 mi Calm Calm - N/A   Partly Cloudy
3:00 AM 71.6 °F - 62.6 °F 73% 29.95 in 5.0 mi Calm Calm - N/A   Unknown
3:30 AM 71.6 °F - 60.8 °F 69% 29.95 in 5.0 mi Calm Calm - N/A   Unknown
4:00 AM 71.6 °F - 62.6 °F 73% 29.95 in 5.0 mi Calm Calm - N/A   Unknown
4:30 AM 69.8 °F - 64.4 °F 83% 29.95 in 5.0 mi Calm Calm - N/A   Unknown
5:00 AM 69.8 °F - 64.4 °F 83% 29.95 in 5.0 mi Calm Calm - N/A   Unknown
5:30 AM 69.8 °F - 62.6 °F 78% 29.95 in 4.3 mi Calm Calm - N/A   Unknown
6:00 AM 69.8 °F - 62.6 °F 78% 29.95 in 3.7 mi Calm Calm - N/A   Unknown
6:30 AM 69.8 °F - 62.6 °F 78% 29.98 in 3.7 mi Calm Calm - N/A   Unknown
7:00 AM 70 °F - 64 °F 76% 29.95 in 4 mi Calm Calm - -   Mist
7:00 AM 69.8 °F - 62.6 °F 78% 29.98 in 2.5 mi Calm Calm - N/A   Scattered Clouds
7:30 AM 71.6 °F - 62.6 °F 73% 30.01 in 2.5 mi Calm Calm - N/A   Scattered Clouds
8:00 AM 71.6 °F - 62.6 °F 73% 30.01 in 2.5 mi Calm Calm - N/A   Mostly Cloudy
8:30 AM 71.6 °F - 62.6 °F 73% 30.01 in 2.5 mi Calm Calm - N/A   Mostly Cloudy
9:00 AM 73.4 °F - 60.8 °F 65% 30.04 in 2.5 mi Calm Calm - N/A   Mostly Cloudy
9:30 AM 75.2 °F - 62.6 °F 65% 30.04 in 2.5 mi Calm Calm - N/A   Mostly Cloudy
10:00 AM 75.2 °F - 62.6 °F 65% 30.04 in 3.7 mi NNW 2.3 mph - N/A   Mostly Cloudy
10:30 AM 77.0 °F - 60.8 °F 57% 30.04 in 3.7 mi NW 2.3 mph - N/A   Scattered Clouds
11:00 AM 80.6 °F 81.5 °F 60.8 °F 51% 30.01 in 3.7 mi North 3.5 mph - N/A   Scattered Clouds
11:30 AM 80.6 °F 81.8 °F 62.6 °F 54% 30.01 in 3.7 mi NNE 2.3 mph - N/A   Partly Cloudy
12:00 PM 86.0 °F 88.2 °F 66.2 °F 51% 29.98 in 4.3 mi Calm Calm - N/A   Partly Cloudy
12:30 PM 86.0 °F 88.2 °F 66.2 °F 51% 29.98 in 4.3 mi Calm Calm - N/A   Partly Cloudy
1:00 PM 89 °F - 70 °F 44% 29.88 in 4 mi Calm Calm - -   Haze
1:00 PM 87.8 °F 90.4 °F 66.2 °F 49% 29.95 in 4.3 mi South 6.9 mph - N/A   Scattered Clouds
1:30 PM 87.8 °F 90.4 °F 66.2 °F 49% 29.92 in 4.3 mi South 5.8 mph - N/A   Scattered Clouds
2:00 PM 87.8 °F 90.4 °F 66.2 °F 49% 29.92 in 3.7 mi South 6.9 mph - N/A   Scattered Clouds
2:30 PM 89.6 °F 92.2 °F 66.2 °F 46% 29.89 in 3.7 mi South 5.8 mph - N/A   Scattered Clouds
3:00 PM 89.6 °F 91.1 °F 64.4 °F 43% 29.89 in 4.3 mi SSE 4.6 mph - N/A   Scattered Clouds
3:30 PM 89.6 °F 92.2 °F 66.2 °F 46% 29.86 in 4.3 mi South 5.8 mph - N/A   Scattered Clouds
4:00 PM 89.6 °F 91.1 °F 64.4 °F 43% 29.86 in 4.3 mi SE 2.3 mph - N/A   Scattered Clouds
4:30 PM 89.6 °F 91.1 °F 64.4 °F 43% 29.83 in 5.0 mi SSW 3.5 mph - N/A   Partly Cloudy
5:00 PM 89.6 °F 91.1 °F 64.4 °F 43% 29.83 in 5.0 mi NE 3.5 mph - N/A   Partly Cloudy
5:30 PM 89.6 °F 91.1 °F 64.4 °F 43% 29.86 in 5.0 mi ENE 2.3 mph - N/A   Partly Cloudy
6:00 PM 89.6 °F 91.1 °F 64.4 °F 43% 29.86 in 5.0 mi NNE 1.2 mph - N/A   Partly Cloudy
6:30 PM 87.8 °F 89.4 °F 64.4 °F 46% 29.86 in 4.3 mi North 1.2 mph - N/A   Scattered Clouds
7:00 PM 85 °F - 71 °F 55% 29.79 in 4 mi Calm Calm - -   Haze
7:00 PM 86.0 °F 88.2 °F 66.2 °F 51% 29.86 in 4.3 mi South 3.5 mph - N/A   Scattered Clouds
7:30 PM 86.0 °F 88.2 °F 66.2 °F 51% 29.86 in 4.3 mi South 3.5 mph - N/A   Scattered Clouds
8:00 PM 82.4 °F 84.6 °F 66.2 °F 58% 29.89 in 4.3 mi West 5.8 mph - N/A   Scattered Clouds
8:30 PM 82.4 °F 84.6 °F 66.2 °F 58% 29.92 in 4.3 mi WSW 5.8 mph - N/A   Scattered Clouds
9:00 PM 84.2 °F 86.6 °F 66.2 °F 55% 29.92 in 4.3 mi SW 8.1 mph - N/A   Scattered Clouds
9:30 PM 80.6 °F 82.7 °F 66.2 °F 61% 29.95 in 4.3 mi SW 10.4 mph - N/A   Mostly Cloudy
10:00 PM 80.6 °F 82.7 °F 66.2 °F 61% 29.95 in 4.3 mi SW 8.1 mph - N/A   Partly Cloudy
10:30 PM 78.8 °F - 64.4 °F 61% 29.98 in 4.3 mi SW 11.5 mph - N/A   Partly Cloudy
11:00 PM 78.8 °F - 64.4 °F 61% 29.98 in 4.3 mi SW 10.4 mph - N/A   Partly Cloudy
11:30 PM 77.0 °F - 64.4 °F 65% 29.98 in 4.3 mi SW 6.9 mph - N/A   Partly Cloudy